Wetbulb
64.35 67.87 75.09 75.36 74.78 73.97 73.27 71.88 70.81 69.79 69.26 68.69 68.30 69.20 70.00 70.59 69.59 68.98 67.68 67.36 66.74 65.81 65.26 66.98 68.14 69.45 69.97 69.64 70.07 69.14 67.92 66.61 66.16 66.27 65.82 65.19 65.01 65.41 66.04 66.16 66.71 64.66 65.94
65.54 68.25 73.88 75.16 74.97 73.91 73.11 71.79 70.70 69.61 69.34 68.26 68.16 69.15 69.95 70.01 68.83 68.78 67.49 66.51 66.33 65.37 64.67 64.98 66.08 66.75 67.70 68.61 68.36 67.68 67.37 67.65 65.88 65.71 65.79 64.89 64.14 64.61 65.80 66.59 66.16 63.52 66.05
66.42 69.41 73.14 75.28 75.14 74.22 72.76 71.76 70.22 68.84 68.80 67.94 68.10 69.81 69.19 66.62 67.93 67.20 66.86 66.15 65.20 65.34 65.25 64.65 64.55 64.74 65.80 66.45 66.61 66.58 66.68 66.68 66.07 65.89 65.77 60.97 60.80 65.12 65.89 66.46 65.95 65.71 66.14
69.00 71.31 72.20 75.05 74.96 74.09 72.64 71.59 70.00 68.71 67.53 67.27 66.83 67.68 67.13 67.09 67.31 67.02 66.26 66.39 65.54 65.29 65.14 64.53 64.38 64.30 64.01 64.08 64.36 65.20 65.54 65.74 65.91 66.47 61.68 61.15 61.22 64.94 65.98 65.96 67.17 67.10 66.69
69.54 71.13 71.84 75.00 74.54 73.72 72.52 71.40 70.27 68.86 67.75 67.20 67.18 67.10 67.07 67.47 67.84 67.67 67.71 67.37 66.67 66.10 65.14 64.59 64.35 64.69 65.17 65.45 65.74 65.72 65.58 65.02 66.42 64.76 60.91 60.12 59.84 63.19 65.95 66.54 67.10 67.61 66.40
68.50 69.94 72.49 74.36 74.40 74.21 72.89 71.46 70.50 69.52 68.42 67.40 67.56 67.35 67.24 67.96 68.87 68.39 69.57 69.56 68.75 66.86 65.58 64.70 64.76 64.70 64.73 65.40 66.18 66.78 67.42 66.55 67.28 60.77 60.43 60.40 60.47 63.12 64.74 65.97 66.73 66.19 67.09
67.35 69.09 71.61 74.42 74.35 73.93 72.63 71.64 70.64 69.63 68.82 67.52 67.24 67.31 67.59 68.13 68.79 69.09 70.73 69.94 67.78 66.93 65.65 65.38 65.59 66.23 66.42 66.49 66.29 66.59 67.03 67.46 63.42 61.03 60.47 60.02 59.48 65.02 65.93 66.02 66.43 67.30 67.37
67.45 69.10 71.14 73.37 74.16 73.75 72.85 72.14 71.25 70.09 69.37 68.14 67.30 67.51 67.95 67.73 68.06 69.87 70.19 69.01 67.84 66.76 66.28 66.32 66.93 67.14 67.03 66.79 66.95 67.06 67.15 67.27 64.54 61.54 61.14 60.45 62.66 66.80 67.61 67.54 67.00 67.14 67.51
67.44 68.57 70.31 71.75 72.75 72.99 72.37 72.03 71.79 71.01 70.85 69.78 68.44 68.15 68.86 68.43 66.92 69.10 69.35 68.52 67.69 67.29 66.73 67.25 67.55 67.19 66.90 67.24 67.46 67.64 67.93 67.26 63.91 62.10 62.19 61.63 64.32 67.33 68.18 68.31 68.53 68.28 68.13
66.88 68.47 69.23 70.31 71.12 70.81 70.13 71.28 71.15 71.02 70.40 70.26 69.33 68.41 67.84 67.75 67.28 66.83 68.85 68.64 67.53 67.22 67.41 67.47 67.45 67.71 67.85 67.95 67.89 67.92 67.17 66.55 62.35 61.23 61.09 61.19 65.93 68.31 68.91 68.92 69.08 69.27 69.26
67.52 67.84 69.38 69.79 69.56 69.16 69.13 69.71 70.51 70.35 69.44 68.63 67.48 66.70 65.59 61.96 61.30 62.44 65.10 66.44 66.94 67.30 67.46 67.68 68.27 68.43 67.24 65.82 65.90 65.43 64.00 61.65 60.08 59.91 60.24 63.85 66.45 67.78 67.80 67.67 68.16 68.53 68.76
66.50 68.10 69.55 69.61 69.46 68.08 69.98 68.36 67.61 67.86 67.00 65.95 64.84 63.32 62.04 60.38 59.68 61.52 62.23 64.82 66.37 66.19 65.71 66.54 66.72 64.95 61.63 59.72 58.52 58.70 56.43 55.95 56.10 57.57 59.44 63.15 63.54 64.56 64.82 65.25 66.61 66.77 66.87
64.02 66.76 68.66 68.60 67.95 67.22 67.48 66.34 65.86 65.62 65.19 64.58 63.49 62.21 61.82 61.14 59.44 60.39 60.36 60.60 60.60 62.32 61.74 61.87 54.54 52.50 51.11 50.98 50.81 50.05 50.87 51.20 51.02 52.69 55.43 60.67 62.39 63.03 63.35 64.12 64.92 66.52 66.41
60.74 64.46 66.97 67.94 67.33 66.50 66.04 65.53 65.15 64.30 64.05 63.16 63.00 62.29 61.40 59.69 59.24 59.34 60.40 62.34 60.94 60.37 52.78 50.48 48.62 47.65 47.11 46.58 46.13 45.92 46.48 45.98 46.28 48.94 50.46 59.25 59.84 61.04 62.16 63.49 62.71 62.17 62.35
58.42 60.60 64.40 66.42 66.44 66.47 65.13 64.58 64.13 63.44 63.29 62.87 62.58 62.56 61.62 59.69 59.88 60.12 56.93 54.58 52.71 49.15 47.55 45.82 44.93 44.30 43.11 43.38 43.42 43.56 42.38 41.60 44.13 46.07 45.79 56.22 55.52 59.04 60.19 59.55 59.19 59.57 60.52
52.68 56.53 62.36 65.38 65.91 65.59 64.73 63.58 63.62 63.02 63.05 62.06 61.50 61.43 61.42 62.68 56.37 54.39 53.22 51.29 49.33 46.52 44.20 43.00 42.35 41.61 40.40 40.74 41.01 41.61 40.12 41.62 41.10 41.75 43.64 45.21 52.06 54.67 55.33 56.37 56.33 56.95 58.23
51.67 51.75 61.12 64.09 65.40 65.13 64.18 63.82 62.86 63.41 63.31 62.87 62.74 63.34 61.16 55.04 53.20 52.10 49.88 47.30 44.10 43.13 41.65 41.02 40.91 40.68 39.31 39.93 38.22 40.54 39.78 40.79 38.31 39.35 40.59 42.86 43.49 48.62 51.26 53.18 53.33 54.43 54.67
53.04 57.27 60.76 64.41 64.70 64.27 63.67 63.53 63.74 63.45 59.00 57.10 55.86 54.99 53.48 52.11 50.86 49.49 47.20 44.02 41.34 40.85 40.19 39.30 39.02 39.38 37.39 37.02 36.43 38.77 37.89 41.17 36.99 37.55 38.62 40.16 39.59 40.50 44.31 49.35 49.76 50.77 51.64
54.15 58.07 61.01 63.23 63.64 63.68 62.67 60.36 56.77 54.93 54.03 52.94 52.12 51.35 49.97 48.16 47.60 46.28 42.34 40.47 40.29 39.55 38.55 38.58 37.74 37.75 36.12 36.48 37.95 38.62 36.96 39.54 36.53 38.70 36.40 38.09 37.30 38.26 38.92 44.16 46.06 46.69 48.05
54.89 58.88 61.84 63.23 62.93 59.66 55.86 54.06 52.37 50.32 49.81 49.18 48.22 47.15 46.33 45.31 43.32 41.59 40.16 39.32 39.25 38.42 37.15 36.58 35.99 35.90 37.06 35.36 38.77 38.23 36.46 39.45 36.18 35.49 35.91 38.28 36.13 37.45 37.32 37.36 37.36 39.09 45.67
53.88 59.52 62.20 62.03 57.32 55.32 55.08 52.37 50.97 47.77 46.62 45.24 44.95 44.44 43.66 41.31 40.86 39.94 39.27 38.43 37.64 36.68 34.86 35.56 35.19 34.64 35.01 35.89 34.32 35.08 35.68 36.45 36.26 35.83 35.57 35.23 35.08 36.25 36.18 36.33 36.65 37.18 37.69
53.13 58.02 60.01 57.36 54.97 55.08 55.22 50.72 47.96 46.93 43.75 42.99 42.96 42.18 40.42 39.97 39.95 39.61 37.95 36.83 36.13 35.29 34.21 33.58 33.36 33.20 33.06 34.17 31.65 31.97 29.81 32.20 34.33 35.71 33.81 35.10 32.75 34.77 35.37 36.78 35.67 36.83 36.21
52.32 55.87 55.26 53.99 55.06 53.46 49.33 46.60 44.59 43.72 42.59 41.36 39.95 37.93 38.28 38.94 38.66 37.85 36.83 35.91 34.88 34.50 33.20 32.55 32.39 32.01 31.19 31.90 33.56 30.38 26.68 25.74 29.52 32.65 33.28 33.07 32.84 32.54 33.72 34.15 35.24 35.84 36.15
52.41 53.26 52.17 52.09 52.77 50.35 49.64 46.36 44.46 42.94 41.77 38.94 36.94 36.17 36.56 37.37 37.21 37.02 36.18 35.14 34.27 33.72 32.36 32.85 33.16 31.21 30.98 29.61 31.35 34.33 31.04 30.04 26.72 25.99 30.32 32.49 30.92 33.04 31.49 31.25 33.17 34.05 35.01
52.78 50.98 51.49 51.80 51.74 49.33 48.16 47.48 44.47 42.29 39.82 36.81 35.54 34.83 34.67 34.97 35.70 35.72 35.09 34.02 33.27 33.08 31.72 31.17 30.43 29.71 30.35 29.13 29.34 29.35 28.31 28.91 28.41 26.71 24.66 26.27 30.74 31.63 31.66 30.44 31.26 32.54 33.40
51.06 50.18 50.63 51.51 48.86 47.02 45.50 45.53 43.84 41.00 37.87 35.99 33.87 33.79 33.97 34.02 34.21 34.12 34.36 32.76 32.13 31.86 31.08 30.65 29.99 29.52 29.01 28.73 28.28 27.73 27.65 26.55 26.15 24.92 23.50 25.92 26.08 28.11 30.53 31.68 30.77 30.97 32.18
MSLP
1010.47 1010.18 1010.25 1010.50 1010.94 1011.49 1011.86 1012.16 1012.45 1012.64 1012.78 1013.02 1013.24 1013.34 1013.45 1013.62 1013.69 1013.90 1014.05 1014.20 1014.31 1014.37 1014.36 1014.34 1014.34 1014.20 1014.09 1014.10 1014.25 1014.59 1014.87 1015.09 1015.14 1015.22 1015.23 1015.33 1015.32 1015.29 1015.13 1015.07 1015.03 1015.18 1015.17
1009.67 1010.05 1010.22 1010.57 1010.98 1011.39 1011.85 1012.26 1012.56 1012.77 1012.89 1013.09 1013.25 1013.38 1013.56 1013.78 1013.84 1013.97 1014.13 1014.30 1014.34 1014.48 1014.51 1014.51 1014.53 1014.58 1014.55 1014.54 1014.60 1014.65 1014.79 1014.91 1015.15 1015.23 1015.30 1015.37 1015.42 1015.37 1015.20 1014.93 1014.96 1015.21 1015.05
1009.63 1010.00 1010.34 1010.59 1011.00 1011.43 1011.85 1012.33 1012.67 1012.92 1013.01 1013.16 1013.28 1013.45 1013.68 1013.80 1013.97 1014.10 1014.17 1014.37 1014.54 1014.62 1014.71 1014.69 1014.71 1014.74 1014.82 1014.91 1014.88 1014.87 1014.82 1014.92 1015.10 1015.28 1015.33 1015.52 1015.50 1015.21 1015.07 1014.96 1015.00 1015.05 1015.01
1009.67 1010.07 1010.34 1010.63 1010.97 1011.48 1011.91 1012.33 1012.71 1012.99 1013.20 1013.28 1013.40 1013.60 1013.73 1013.94 1014.02 1014.08 1014.07 1014.24 1014.47 1014.60 1014.81 1014.82 1014.88 1014.88 1014.87 1015.01 1014.99 1014.91 1014.86 1014.83 1015.01 1015.24 1015.49 1015.56 1015.49 1015.22 1014.83 1014.71 1014.70 1014.75 1014.85
1009.90 1010.08 1010.47 1010.70 1011.04 1011.46 1011.99 1012.43 1012.70 1013.01 1013.21 1013.43 1013.50 1013.54 1013.79 1013.90 1013.89 1013.92 1013.88 1014.11 1014.35 1014.63 1014.90 1014.89 1014.89 1014.96 1015.01 1015.05 1015.02 1014.98 1014.90 1014.84 1014.98 1015.17 1015.40 1015.43 1015.40 1015.19 1014.79 1014.43 1014.41 1014.51 1014.64
1010.03 1010.11 1010.43 1010.78 1011.11 1011.51 1011.89 1012.32 1012.72 1013.03 1013.26 1013.39 1013.60 1013.71 1013.89 1013.91 1013.90 1013.85 1013.90 1014.16 1014.43 1014.64 1014.85 1014.90 1014.84 1014.86 1014.82 1015.06 1015.10 1014.84 1014.76 1014.78 1014.77 1014.98 1015.22 1015.18 1015.12 1015.05 1014.70 1014.58 1014.42 1014.27 1014.35
1010.41 1010.33 1010.50 1010.73 1011.12 1011.54 1011.92 1012.28 1012.61 1012.99 1013.19 1013.40 1013.48 1013.82 1013.91 1013.99 1013.90 1013.78 1013.87 1014.27 1014.56 1014.81 1014.93 1014.98 1014.94 1014.90 1014.78 1014.85 1015.04 1014.90 1014.76 1014.71 1014.89 1014.95 1015.06 1015.03 1015.03 1014.76 1014.48 1014.27 1014.16 1013.94 1013.96
1010.50 1010.49 1010.67 1010.83 1011.08 1011.49 1011.94 1012.29 1012.64 1012.92 1013.21 1013.41 1013.56 1013.71 1013.93 1014.11 1014.09 1013.80 1013.93 1014.33 1014.56 1014.78 1014.88 1014.94 1014.86 1014.73 1014.72 1014.77 1014.71 1014.85 1014.77 1014.78 1014.79 1014.85 1014.93 1014.88 1014.72 1014.49 1014.21 1013.96 1013.85 1013.77 1013.63
1010.38 1010.61 1010.71 1010.93 1011.08 1011.43 1011.87 1012.23 1012.56 1012.83 1013.05 1013.37 1013.64 1013.84 1014.00 1014.08 1014.26 1014.10 1014.25 1014.37 1014.61 1014.83 1014.81 1015.00 1014.87 1014.70 1014.59 1014.54 1014.60 1014.65 1014.71 1014.64 1014.73 1014.80 1014.71 1014.62 1014.53 1014.23 1013.88 1013.58 1013.46 1013.40 1013.27
1010.57 1010.64 1010.80 1010.99 1011.16 1011.43 1011.84 1012.23 1012.49 1012.73 1012.93 1013.24 1013.63 1013.98 1014.09 1014.24 1014.44 1014.40 1014.45 1014.51 1014.67 1014.75 1014.79 1014.85 1014.66 1014.53 1014.45 1014.37 1014.49 1014.53 1014.58 1014.51 1014.60 1014.64 1014.63 1014.55 1014.32 1013.85 1013.48 1013.23 1013.08 1012.92 1012.78
1010.57 1010.71 1010.79 1011.08 1011.25 1011.50 1011.79 1012.21 1012.54 1012.68 1012.88 1013.27 1013.70 1014.05 1014.16 1014.50 1014.60 1014.64 1014.68 1014.68 1014.73 1014.74 1014.83 1014.77 1014.65 1014.54 1014.49 1014.48 1014.59 1014.62 1014.66 1014.72 1014.70 1014.60 1014.53 1014.30 1013.97 1013.58 1013.24 1013.04 1012.85 1012.69 1012.58
1010.35 1010.46 1010.75 1011.03 1011.29 1011.63 1011.81 1012.19 1012.62 1012.88 1013.06 1013.40 1013.78 1014.10 1014.32 1014.50 1014.69 1014.79 1014.82 1014.74 1014.76 1014.82 1014.93 1014.83 1014.65 1014.84 1014.78 1014.79 1014.85 1014.94 1015.03 1015.00 1014.92 1014.76 1014.52 1014.11 1013.78 1013.48 1013.22 1013.00 1012.79 1012.55 1012.29
1010.11 1010.24 1010.42 1010.76 1011.02 1011.50 1011.86 1012.28 1012.70 1013.04 1013.25 1013.54 1013.94 1014.14 1014.32 1014.45 1014.69 1014.89 1014.98 1014.88 1014.98 1014.92 1015.17 1015.07 1015.12 1015.46 1015.40 1015.27 1015.23 1015.36 1015.37 1015.23 1015.16 1014.88 1014.63 1014.22 1013.79 1013.39 1013.14 1012.92 1012.72 1012.58 1012.35
1009.89 1010.11 1010.25 1010.60 1010.94 1011.31 1011.72 1012.22 1012.64 1013.00 1013.33 1013.66 1013.85 1014.16 1014.33 1014.60 1014.78 1015.08 1014.97 1014.94 1015.04 1015.20 1015.56 1015.70 1015.78 1015.88 1015.93 1015.70 1015.57 1015.62 1015.58 1015.48 1015.33 1015.12 1014.90 1014.44 1014.05 1013.74 1013.38 1013.13 1013.11 1012.97 1012.71
1009.54 1009.47 1009.70 1010.12 1010.64 1011.03 1011.51 1011.97 1012.55 1012.96 1013.24 1013.48 1013.84 1014.03 1014.28 1014.60 1015.06 1015.10 1015.11 1015.24 1015.59 1016.01 1016.05 1016.04 1016.25 1016.22 1016.20 1015.95 1015.84 1015.83 1015.77 1015.68 1015.53 1015.32 1015.21 1014.79 1014.57 1014.13 1013.88 1013.75 1013.64 1013.42 1013.03
1008.79 1008.81 1008.99 1009.46 1010.03 1010.62 1011.22 1011.78 1012.30 1012.71 1013.13 1013.48 1013.68 1013.91 1014.25 1014.48 1014.98 1015.16 1015.37 1015.81 1016.12 1016.35 1016.35 1016.23 1016.69 1016.60 1016.50 1016.18 1016.13 1016.11 1016.12 1015.95 1015.76 1015.56 1015.43 1015.32 1015.02 1014.77 1014.53 1014.30 1014.12 1013.84 1013.58
1007.92 1008.19 1008.39 1008.84 1009.41 1010.15 1010.86 1011.53 1012.04 1012.45 1012.93 1013.18 1013.37 1013.78 1014.27 1014.53 1014.97 1015.47 1015.93 1016.24 1016.68 1016.61 1016.63 1016.61 1016.83 1016.69 1016.47 1016.30 1016.33 1016.27 1016.18 1016.06 1015.94 1015.88 1015.71 1015.61 1015.50 1015.32 1015.07 1014.85 1014.62 1014.32 1014.10
1007.73 1007.89 1008.04 1008.45 1009.06 1009.79 1010.63 1011.40 1011.94 1012.32 1012.73 1013.15 1013.46 1013.88 1014.39 1014.97 1015.24 1015.64 1016.17 1016.77 1016.94 1016.81 1016.77 1016.95 1017.11 1016.96 1016.91 1016.83 1016.65 1016.40 1016.25 1016.05 1016.09 1016.04 1015.92 1015.91 1015.83 1015.80 1015.65 1015.32 1015.15 1014.90 1014.59
1007.34 1007.54 1007.90 1008.40 1009.06 1009.75 1010.62 1011.39 1011.98 1012.58 1013.10 1013.26 1013.75 1014.32 1014.72 1015.13 1015.54 1015.94 1016.58 1017.04 1017.07 1017.14 1017.06 1017.31 1017.48 1017.44 1017.49 1017.27 1016.78 1016.38 1016.31 1016.25 1016.19 1016.01 1016.09 1016.07 1016.11 1016.01 1015.92 1015.70 1015.50 1015.27 1014.96
1007.25 1007.34 1007.70 1008.44 1009.16 1009.83 1010.67 1011.59 1012.45 1013.01 1013.46 1013.86 1014.32 1014.78 1015.07 1015.38 1015.96 1016.39 1016.89 1017.18 1017.30 1017.45 1017.41 1017.62 1017.92 1017.86 1017.94 1017.92 1017.08 1016.49 1016.37 1016.38 1016.36 1016.25 1016.22 1016.14 1016.24 1016.16 1016.01 1015.92 1015.80 1015.58 1015.13
1007.31 1007.45 1007.75 1008.48 1009.38 1009.62 1010.56 1011.65 1012.61 1013.25 1013.93 1014.46 1014.80 1015.12 1015.49 1015.90 1016.30 1016.70 1017.19 1017.41 1017.67 1017.79 1018.11 1018.18 1018.11 1018.32 1018.31 1018.08 1017.69 1017.08 1016.69 1016.45 1016.34 1016.24 1016.17 1016.28 1016.27 1016.12 1015.94 1015.87 1015.70 1015.46 1015.18
1007.45 1007.43 1007.88 1008.51 1009.30 1009.63 1010.23 1011.35 1012.13 1013.11 1014.28 1014.85 1015.38 1015.74 1016.08 1016.28 1016.56 1016.90 1017.31 1017.62 1017.96 1018.15 1018.23 1018.41 1018.70 1018.85 1018.97 1018.82 1018.99 1018.75 1018.25 1017.20 1016.60 1016.22 1016.31 1016.27 1016.10 1016.01 1015.93 1015.76 1015.62 1015.28 1014.97
1007.75 1007.55 1007.94 1008.48 1009.07 1009.69 1010.45 1011.41 1012.60 1013.58 1014.55 1015.46 1016.12 1016.37 1016.58 1016.65 1016.88 1017.07 1017.57 1017.78 1018.13 1018.29 1018.58 1019.05 1019.25 1019.40 1019.65 1019.39 1019.37 1019.49 1019.23 1019.20 1018.39 1016.85 1016.36 1016.34 1016.32 1016.43 1016.29 1016.06 1015.62 1015.12 1014.76
1007.15 1007.71 1008.04 1008.48 1008.99 1009.71 1010.43 1011.22 1011.86 1013.03 1014.20 1015.51 1016.07 1016.51 1016.96 1017.06 1017.24 1017.51 1017.71 1017.95 1018.28 1018.51 1018.85 1019.28 1019.51 1019.77 1019.86 1020.23 1019.79 1019.63 1019.74 1019.83 1019.50 1018.02 1017.09 1016.65 1016.72 1016.54 1016.23 1015.83 1015.40 1015.00 1014.46
1007.09 1007.54 1008.08 1008.55 1009.12 1009.76 1010.37 1010.78 1011.87 1013.19 1014.05 1015.38 1016.14 1016.62 1017.20 1017.56 1017.64 1017.77 1017.87 1018.23 1018.58 1018.80 1019.21 1019.45 1019.77 1019.99 1020.08 1020.32 1020.27 1020.20 1020.03 1019.81 1019.70 1019.67 1017.97 1017.02 1016.65 1016.27 1016.02 1015.69 1015.34 1014.77 1014.13
1007.02 1007.52 1008.08 1008.48 1009.24 1009.91 1010.33 1011.09 1011.72 1012.92 1014.28 1015.53 1016.42 1016.94 1017.49 1017.75 1017.96 1018.04 1018.29 1018.56 1018.79 1019.08 1019.42 1019.64 1019.89 1020.02 1020.13 1020.16 1020.26 1020.33 1020.27 1020.23 1019.96 1019.82 1019.05 1017.78 1016.88 1015.87 1015.67 1015.13 1014.76 1014.26 1013.81
Wind_Speed
5 6 11 16 16 15 14 13 10 9 9 7 5 7 9 10 9 7 5 7 7 5 5 7 9 11 7 6 7 6 4 2 4 7 8 7 5 5 5 5 8 3 4
8 7 10 12 16 16 15 13 10 9 9 7 6 9 12 10 7 8 7 6 5 5 6 5 5 6 7 9 7 4 2 4 4 6 6 5 5 5 5 7 4 1 6
8 8 6 10 14 15 15 13 10 8 8 8 6 7 9 6 8 6 6 4 3 4 5 5 5 5 5 5 5 4 4 5 3 5 7 3 4 6 6 8 3 4 7
9 7 6 10 16 15 15 13 11 9 8 8 8 6 5 6 7 7 7 6 4 2 3 4 5 5 5 4 4 4 5 5 3 4 3 3 4 9 8 5 7 7 6
7 7 6 11 14 16 15 13 11 10 9 9 9 8 6 9 10 9 9 9 7 4 2 3 3 3 3 3 4 4 4 4 4 3 2 3 3 6 9 9 6 6 6
6 7 9 12 12 14 14 13 11 10 9 9 7 5 3 6 6 7 6 8 6 6 3 2 1 1 3 4 5 6 5 4 1 1 3 4 4 8 10 9 11 9 10
5 5 6 13 13 14 14 13 12 10 9 8 8 7 5 1 4 6 10 6 6 5 2 1 2 4 4 5 7 8 9 8 3 2 4 4 5 10 10 10 12 12 11
7 5 5 10 13 14 14 12 12 11 10 8 7 8 6 1 6 8 6 9 6 4 2 3 5 6 7 7 7 8 8 7 4 3 5 5 9 12 11 11 12 13 14
6 6 5 5 8 13 13 12 11 11 11 10 7 7 5 1 4 6 6 7 4 2 3 5 7 7 6 6 6 7 7 8 5 4 4 4 10 13 12 12 12 13 14
5 5 6 5 5 6 7 11 11 11 10 11 8 5 3 2 2 3 3 1 1 3 4 6 6 6 6 7 9 8 8 9 3 4 4 4 13 15 13 14 14 14 14
4 5 5 5 5 5 6 6 9 9 7 9 7 5 3 1 1 3 3 3 3 4 5 7 9 9 9 9 10 10 9 4 4 3 3 8 11 12 13 13 13 14 15
10 10 8 9 7 5 5 5 4 4 4 4 4 4 2 2 0 2 3 4 4 6 6 7 9 10 8 4 4 8 3 5 4 4 3 10 10 10 11 13 12 13 14
5 5 11 10 6 6 4 3 2 2 3 3 4 3 3 2 1 1 1 2 2 3 3 5 7 5 6 5 5 4 5 4 3 3 5 11 9 7 7 8 9 14 17
6 7 7 8 8 7 4 4 4 3 3 3 3 4 3 2 2 1 1 3 3 3 5 5 4 5 6 6 6 5 5 4 3 3 6 13 14 12 10 11 14 15 15
8 9 10 10 9 8 7 4 4 4 3 4 4 4 3 3 3 3 3 5 5 4 4 4 4 4 5 5 5 6 6 6 6 3 3 13 16 14 16 14 14 15 15
9 10 10 12 11 9 7 6 5 4 4 4 4 4 4 3 4 4 5 4 5 4 4 5 4 4 4 4 5 5 6 5 5 6 4 5 16 16 16 16 16 16 16
7 7 11 11 12 11 9 6 5 5 5 4 4 5 6 5 5 5 5 5 4 4 5 5 4 4 5 5 5 4 4 3 5 6 5 4 6 14 17 17 17 17 17
6 8 7 9 12 11 9 6 4 4 5 4 5 5 8 7 6 6 5 5 4 4 4 4 4 4 5 5 4 3 3 2 4 5 5 4 4 5 10 17 18 17 18
7 7 8 9 12 12 10 7 7 7 5 5 6 5 7 8 7 7 5 4 5 4 5 4 4 4 4 6 6 3 4 2 3 3 6 6 6 5 4 11 16 15 16
5 7 9 9 12 12 9 9 6 6 6 5 6 6 6 7 8 6 5 5 5 4 5 4 5 5 3 4 5 5 3 1 2 4 4 3 4 5 4 5 4 5 15
5 8 11 14 11 11 9 8 6 6 5 5 5 7 7 7 7 7 5 5 5 6 5 5 3 6 5 6 4 5 3 2 4 2 1 1 3 3 4 4 4 3 4
6 8 10 11 11 9 8 4 5 6 5 5 4 6 6 7 7 6 6 5 6 4 6 6 6 3 3 5 3 1 5 6 4 6 2 1 5 4 6 9 7 8 5
7 8 10 11 12 10 11 10 8 9 6 4 3 4 4 6 7 7 6 6 6 5 5 5 4 6 3 3 6 3 4 3 4 4 4 3 6 4 6 6 7 7 6
8 7 10 12 12 12 12 12 16 8 8 3 4 4 4 6 7 6 6 6 6 4 6 4 4 3 3 3 3 3 0 3 3 6 3 6 2 8 6 5 7 7 7
9 9 10 11 11 12 11 13 10 9 5 4 5 8 6 5 6 6 6 6 6 4 5 6 5 4 2 1 1 2 2 2 1 2 9 5 8 7 6 5 5 7 8
7 9 10 14 11 10 10 11 14 14 12 9 5 5 4 4 4 6 6 6 5 5 5 4 3 3 2 1 0 1 2 1 3 2 5 10 12 6 8 9 6 5 5
Wind_Direction
244 194 185 170 164 156 153 150 147 142 130 130 146 158 158 152 140 142 119 105 93 54 28 16 18 31 73 99 107 99 94 68 14 8 22 6 355 331 295 266 243 196 268
158 179 197 174 161 159 156 153 152 148 136 131 153 152 150 139 126 129 117 106 100 52 35 24 27 32 37 47 58 60 29 353 19 9 16 11 0 331 310 289 86 248 268
147 159 182 161 160 160 156 153 153 151 151 145 147 144 148 122 139 118 124 116 93 63 39 30 34 34 31 27 22 16 12 17 351 348 26 19 340 330 312 282 202 278 286
145 151 155 169 156 159 155 155 156 156 151 150 154 155 139 144 138 159 163 170 185 120 59 47 45 38 35 16 3 337 328 324 333 347 28 355 336 324 313 264 243 229 260
146 144 154 160 153 154 158 161 161 161 159 159 158 160 192 200 190 198 190 182 178 155 118 80 69 43 18 1 345 335 336 340 10 29 331 309 298 304 316 304 257 272 296
148 144 160 163 161 161 161 165 168 168 169 174 169 174 195 204 238 247 228 181 165 157 164 148 109 341 356 325 311 307 282 284 231 262 281 291 306 286 289 285 284 277 257
156 153 158 168 169 162 166 170 171 173 173 178 189 205 210 315 1 263 217 142 156 163 185 249 297 316 329 326 318 312 326 355 25 281 278 277 277 282 283 276 270 275 254
162 166 168 176 172 169 172 174 175 176 181 176 190 201 212 320 6 15 157 147 156 180 244 283 317 325 322 319 318 314 316 317 316 282 272 270 272 281 284 276 267 266 274
161 163 169 176 174 174 175 173 178 187 195 173 185 201 205 175 2 24 129 134 166 234 305 310 315 321 321 317 314 312 312 303 299 289 278 261 271 278 281 279 269 259 258
175 175 172 174 171 165 164 174 181 200 203 167 171 186 155 169 307 13 81 115 222 284 301 307 314 314 314 323 323 335 338 321 322 305 293 291 301 293 291 292 287 276 262
191 188 175 170 170 165 161 179 188 213 180 155 155 151 122 103 318 293 273 257 300 305 318 323 328 342 7 10 13 15 15 1 349 337 309 309 319 326 323 322 313 301 286
198 198 191 195 184 166 174 164 172 174 149 149 142 142 128 120 157 276 290 320 327 342 332 343 13 32 42 40 29 26 23 15 11 352 335 346 340 333 328 331 326 328 320
203 190 196 197 174 165 170 149 147 157 144 146 158 162 149 103 58 54 1 11 358 14 17 38 44 32 32 34 34 28 17 20 8 353 351 9 2 357 349 359 5 27 23
197 201 196 190 174 168 151 158 159 156 157 166 170 170 144 126 74 25 56 68 50 47 58 48 48 42 34 35 39 30 23 8 5 7 8 25 36 26 30 37 36 28 22
219 209 197 179 181 174 161 153 158 168 167 168 171 170 148 123 123 114 85 66 60 49 59 54 44 41 31 22 27 31 16 10 17 19 15 30 36 33 42 32 29 24 22
221 225 187 185 175 161 164 158 167 156 162 168 161 161 149 132 116 92 74 65 59 47 48 63 50 41 30 20 18 23 20 28 31 35 28 22 39 38 35 32 26 20 20
248 217 189 179 162 163 158 160 158 168 159 133 123 115 113 100 97 93 84 72 60 51 61 52 42 39 31 9 11 10 17 42 43 43 30 37 28 34 33 31 25 21 13
222 194 168 171 163 150 147 142 145 133 112 121 105 104 105 100 96 96 91 71 59 57 56 53 23 28 21 11 332 349 6 76 47 51 44 41 27 32 27 29 22 16 8
204 172 154 149 151 138 126 109 100 104 99 96 96 99 104 101 88 92 84 81 65 55 47 36 32 41 22 354 326 337 346 142 62 54 48 46 33 31 21 19 15 9 1
174 150 131 135 137 128 115 106 98 90 84 82 90 93 97 95 95 95 85 74 65 59 40 33 43 22 43 335 321 323 328 194 62 48 47 37 19 22 11 6 354 339 352
147 139 144 143 145 135 133 126 122 114 105 85 84 86 95 96 96 95 89 81 68 69 62 35 30 33 9 347 351 336 332 316 278 311 359 10 6 342 358 346 342 319 318
173 148 142 141 147 139 136 112 118 125 83 85 87 86 92 98 99 95 95 82 76 85 58 45 40 17 11 21 5 295 356 333 347 306 337 300 7 4 2 342 332 322 309
185 157 144 144 147 132 123 110 102 95 92 92 83 87 72 91 91 90 90 93 83 77 72 63 45 47 14 350 30 69 352 308 328 320 331 360 346 350 322 317 309 303 296
170 146 142 146 142 138 142 137 144 145 141 142 133 111 94 86 88 91 92 85 80 78 70 62 56 56 72 27 336 31 184 216 306 320 311 314 344 322 300 296 301 290 286
151 151 150 144 147 146 149 148 139 126 110 114 115 111 101 85 85 88 85 83 80 75 73 65 50 46 59 117 52 337 329 294 264 257 301 304 307 302 290 274 275 283 281
140 144 151 150 146 149 136 142 142 135 135 132 129 118 117 102 87 76 80 83 81 75 67 61 53 46 39 36 290 230 217 261 284 278 285 305 297 294 305 288 278 271 275